Theta_e
314 314 314 315 314 313 311 312 316 317 316 315 314 313 314 314 314 313 315 314 311 312 314 314 313 313 315 314 313 312 311 313 315 315 314 313 310 310 312 314 316 318 319 319 320 322 324 325 326 327 328 328 329 329 329 330 330 331 331 331 331 332 332 332 332 333 333 333 333 333 333 333 334 334 334 335 335 335 335 334 334 333 333 333 332 332
314 317 316 314 315 314 313 312 313 314 313 314 314 314 313 314 314 313 313 313 311 312 315 315 313 313 314 313 313 311 310 311 313 314 315 315 311 308 309 311 312 312 313 314 314 315 319 322 323 325 327 328 328 328 329 329 329 330 330 330 331 331 331 332 332 332 332 333 333 332 333 333 333 333 333 333 334 334 335 335 334 334 333 333 333 332
315 317 316 314 317 317 314 313 312 313 312 313 314 315 315 314 314 313 312 313 311 311 317 316 313 314 313 312 311 311 311 311 311 311 313 314 312 310 309 309 310 309 310 311 311 309 312 316 319 322 324 326 328 328 328 329 329 329 329 330 330 330 330 331 331 332 332 332 332 332 332 332 332 332 332 332 332 333 334 334 335 334 334 333 332 332
317 316 315 314 317 317 314 311 311 313 312 313 314 315 316 314 313 313 312 312 312 311 314 314 313 314 313 312 312 311 311 311 311 311 311 312 312 313 311 310 309 309 310 310 310 308 307 310 314 317 321 324 326 327 327 328 329 329 329 329 329 329 330 330 330 331 331 331 332 332 332 332 332 332 332 332 332 332 332 333 334 334 334 333 332 331
318 315 314 314 314 316 314 311 311 312 312 314 314 314 316 316 314 313 312 312 313 312 311 312 314 314 314 314 313 312 310 309 310 310 310 311 311 311 312 311 311 311 311 310 310 309 305 306 310 314 317 321 323 325 326 327 328 328 328 328 329 329 329 329 330 330 330 331 331 332 332 332 332 332 332 332 331 331 331 331 332 332 333 333 333 332
317 314 312 312 312 316 315 312 313 313 313 314 314 313 316 318 315 314 315 313 313 315 313 314 314 317 323 320 314 313 312 310 311 311 311 310 310 309 310 311 311 311 311 310 310 309 306 304 307 310 314 318 321 323 324 325 327 327 327 328 328 329 329 329 329 330 330 330 331 331 331 331 331 331 331 331 331 331 331 331 331 331 331 332 332 332
316 312 311 312 313 316 318 315 314 314 313 314 314 313 313 315 314 314 316 314 316 319 315 312 312 318 325 321 315 316 314 313 312 311 311 310 308 309 309 309 309 310 310 310 310 309 306 304 305 307 311 315 318 320 321 324 325 326 327 327 327 328 329 329 329 330 330 330 330 331 331 331 331 331 331 331 331 331 331 331 331 331 331 331 331 332
314 311 311 313 313 315 317 316 315 313 314 315 315 316 314 312 313 315 317 316 318 319 315 314 313 315 317 315 317 319 315 315 315 313 313 311 310 310 309 309 309 309 310 311 311 310 306 303 304 306 308 312 314 316 319 322 324 325 326 326 327 327 328 329 329 330 330 330 330 330 330 331 331 331 331 331 330 330 331 331 331 331 331 330 330 330
310 311 312 313 313 314 314 315 315 313 316 316 314 317 316 313 314 315 316 316 317 316 315 316 313 312 316 319 321 318 314 315 315 315 315 313 312 312 310 309 308 309 309 309 311 310 307 303 303 305 307 309 311 313 317 320 322 324 325 326 327 327 328 328 329 329 330 330 330 330 330 330 331 331 331 331 331 331 331 331 331 331 330 331 330 329
309 311 312 311 312 313 312 315 316 313 314 314 314 318 319 320 320 316 316 316 315 314 315 318 315 313 318 321 318 313 312 314 314 316 316 313 313 313 311 310 309 308 308 309 310 308 305 304 305 305 306 307 309 312 316 319 321 323 325 326 327 327 328 328 329 329 330 330 330 330 330 330 330 331 331 331 331 331 330 330 331 330 330 330 329 329
311 310 310 311 313 313 312 314 313 313 315 314 317 320 319 323 323 319 322 320 313 314 315 317 317 312 316 319 314 313 317 317 315 315 315 314 313 312 313 314 311 309 307 308 308 305 302 303 304 304 305 306 307 309 313 317 320 323 324 325 326 327 328 328 329 329 330 330 330 330 331 331 330 331 331 330 330 330 330 330 330 330 330 329 328 327
311 310 310 311 314 313 311 312 312 313 315 314 318 318 316 322 320 318 324 318 313 316 313 314 316 313 314 316 312 313 318 317 315 315 316 315 314 315 319 322 319 315 310 307 307 306 304 304 303 303 304 305 306 307 309 314 318 321 323 324 326 327 327 328 329 329 330 330 330 330 330 330 331 330 330 331 330 330 330 330 330 330 329 329 328 327
312 313 312 311 312 312 311 314 314 313 314 314 316 316 314 318 317 315 320 317 316 318 312 311 314 312 313 316 314 316 316 314 313 312 315 314 313 317 324 325 323 322 320 317 313 308 307 308 304 302 304 304 305 306 307 310 314 318 322 323 324 326 327 327 328 329 329 330 330 330 330 330 330 331 330 330 331 331 330 330 330 330 329 329 328 327
316 317 314 311 312 313 312 313 314 313 313 312 312 313 314 316 315 314 316 317 318 318 312 310 312 314 316 316 316 317 314 313 313 311 311 311 311 314 318 317 317 320 324 326 321 315 314 311 304 302 304 305 306 306 307 308 311 315 319 322 324 325 325 327 328 328 329 329 330 330 330 330 330 330 330 330 331 331 331 330 330 330 330 329 329 328
319 319 315 313 314 313 311 311 316 317 314 312 313 315 314 316 318 317 316 318 320 318 312 309 313 319 322 317 314 315 314 314 314 313 313 311 309 309 310 312 314 315 320 327 326 323 319 308 303 306 307 307 308 308 308 308 309 313 316 320 322 323 325 326 327 328 328 329 329 330 330 330 330 330 330 331 330 330 331 330 330 330 330 329 329 328
319 318 313 311 312 311 309 312 318 317 313 313 316 316 313 318 325 321 316 319 321 319 314 312 316 322 320 315 312 311 314 316 314 315 317 315 311 309 309 311 313 313 318 328 329 329 321 306 302 308 308 308 310 309 310 309 309 311 314 317 320 322 324 324 326 327 327 328 329 329 330 330 330 330 330 330 330 330 330 330 330 330 330 329 328 328
318 316 312 311 311 310 312 315 314 314 315 314 314 314 312 318 327 322 313 312 314 316 316 314 316 319 317 314 313 312 313 315 314 314 317 316 313 312 313 311 311 312 317 325 329 330 324 309 306 309 309 310 311 310 311 311 310 311 312 315 318 320 322 323 325 326 326 328 328 328 329 329 330 330 329 330 330 330 330 330 330 330 329 329 328 328
317 315 312 313 313 310 311 316 313 313 316 314 314 314 312 314 321 322 317 313 311 314 319 317 314 316 317 315 316 315 312 313 314 314 314 314 314 314 316 313 312 313 315 319 324 325 320 310 308 312 311 312 312 312 312 311 311 311 311 312 315 317 321 322 324 325 325 327 327 327 328 328 329 329 329 329 329 330 330 329 329 329 329 329 328 328
317 316 312 312 314 310 309 314 313 312 312 313 316 317 315 316 317 316 317 317 314 314 319 321 316 314 316 316 315 314 314 315 313 312 311 312 315 317 318 316 315 314 316 318 321 325 323 313 310 313 313 314 314 313 313 311 310 310 310 311 312 313 317 319 321 323 324 326 327 327 328 328 329 329 329 329 329 329 329 329 329 329 328 328 327 327
315 320 317 311 312 313 311 312 314 313 311 312 314 313 313 317 317 316 315 316 317 316 318 321 317 313 315 318 317 315 316 316 312 312 314 315 316 316 317 319 319 317 318 320 321 326 326 313 308 313 314 314 315 314 314 313 311 310 310 310 311 311 313 315 317 320 322 324 325 326 327 327 327 328 328 328 329 329 329 328 329 328 327 327 327 327
311 318 319 313 310 313 315 313 313 314 313 312 313 312 311 312 315 318 315 313 318 319 319 318 315 316 320 317 315 314 315 315 314 314 316 317 316 314 313 314 315 314 315 318 320 326 324 309 305 311 314 314 316 315 314 314 312 312 311 310 310 311 312 313 316 318 320 321 322 324 325 325 326 326 327 328 328 328 328 327 327 327 326 326 326 327
312 315 317 315 312 314 315 313 312 314 314 313 313 313 313 313 316 317 313 314 317 317 320 318 311 317 324 315 310 313 313 311 314 313 313 319 321 319 314 310 310 313 317 319 320 324 321 308 304 308 311 312 315 315 314 315 314 313 312 311 310 310 311 313 316 319 320 321 322 323 323 324 325 326 326 327 327 326 326 326 326 325 325 326 325 325
317 318 316 315 315 316 313 309 307 312 316 316 314 313 313 313 315 315 313 315 315 313 317 316 312 315 320 314 310 312 313 315 318 315 313 317 319 317 315 312 311 315 319 318 317 318 311 304 304 307 308 310 312 313 313 314 315 315 313 312 311 310 312 314 317 319 321 322 323 323 323 324 325 325 326 325 325 326 325 325 325 325 325 325 324 322
316 318 316 315 316 318 315 310 308 310 314 315 315 313 312 312 314 315 318 319 317 315 314 313 312 312 317 322 319 315 315 317 316 314 313 316 316 316 318 317 315 316 318 315 314 312 304 300 304 306 307 309 311 312 313 312 313 314 313 312 311 311 313 316 318 319 321 322 323 324 324 325 325 325 325 324 324 324 324 324 323 323 323 323 321 320
317 316 315 316 317 319 319 317 314 312 312 315 316 312 311 315 315 314 316 315 314 318 317 313 313 312 316 324 324 319 318 316 313 312 314 316 316 319 321 319 317 318 319 316 315 314 308 305 305 305 307 310 311 312 313 312 312 311 312 312 312 313 314 315 317 319 321 321 322 323 324 323 324 323 323 323 323 323 322 322 321 321 321 321 319 319
322 318 314 316 317 317 318 317 316 315 313 315 318 313 311 314 314 313 316 314 311 316 317 313 313 317 321 321 318 317 317 316 314 313 313 312 312 316 322 320 317 319 320 318 318 316 313 309 305 303 306 309 311 312 313 312 312 311 312 313 314 315 315 316 317 319 320 321 321 321 322 322 322 322 322 322 322 322 321 320 320 320 319 318 318 317
323 319 313 314 315 313 316 317 318 318 315 314 316 314 312 313 314 317 320 317 314 315 316 313 312 316 319 318 319 321 318 317 317 314 314 314 313 318 323 319 316 317 317 315 315 314 313 312 308 303 303 307 310 312 313 313 312 312 313 314 315 316 317 317 318 319 320 320 320 320 320 321 321 321 321 320 320 320 319 319 318 318 317 317 316 315
322 317 313 315 313 314 321 322 318 317 317 316 316 315 314 314 314 316 316 314 315 316 314 313 312 312 313 316 322 323 319 317 317 315 315 316 317 322 323 320 319 317 315 313 313 314 314 314 312 303 300 305 309 310 311 312 312 313 314 315 316 316 317 318 318 318 319 319 319 319 319 320 320 320 320 319 319 318 317 316 316 315 315 314 314 314
317 314 314 315 313 316 323 323 318 316 316 315 316 315 314 314 314 314 314 313 315 314 312 314 315 313 311 312 316 320 319 316 314 313 312 312 317 324 324 325 326 322 321 321 319 316 314 314 314 306 300 302 306 306 308 310 311 313 313 314 315 315 316 317 317 318 318 318 318 318 318 318 318 318 318 317 317 316 315 314 313 313 312 312 312 312
313 314 315 314 312 314 320 321 318 317 317 315 315 315 314 314 313 313 313 312 313 312 313 317 319 315 313 313 314 317 317 313 310 309 308 311 320 330 331 333 334 331 329 328 323 317 312 311 311 305 299 300 302 303 306 308 310 312 312 313 314 314 315 316 316 317 316 316 317 316 316 316 316 316 316 315 314 314 313 312 311 311 311 310 309 308
313 315 314 313 313 313 315 317 316 315 317 317 316 314 313 314 314 313 313 313 313 313 312 314 315 316 317 318 316 315 312 310 310 310 311 314 322 331 334 335 337 337 331 323 316 312 310 309 308 303 298 299 300 302 305 307 309 310 311 312 312 313 313 314 315 315 314 314 315 315 315 314 314 313 313 313 312 312 311 311 310 310 309 307 305 304
313 314 313 313 315 313 313 315 315 314 315 315 315 315 314 314 313 313 313 312 312 313 313 313 313 313 318 319 316 313 312 313 314 315 316 318 320 325 333 335 336 338 331 318 311 311 313 312 310 306 300 299 300 302 304 306 307 308 310 310 311 311 311 312 312 312 312 312 312 312 312 312 312 311 311 311 311 310 310 310 309 307 305 303 302 300
314 315 315 314 314 313 311 313 316 316 315 313 313 314 313 313 313 312 313 313 312 312 312 313 312 312 316 318 317 316 315 315 316 317 318 318 317 318 325 329 331 333 328 318 314 319 320 313 307 303 300 299 301 302 304 306 308 308 309 310 310 310 310 310 310 310 310 310 310 310 310 310 311 310 308 309 309 309 309 308 306 304 301 300 298 296
315 316 316 315 316 314 310 313 316 316 314 313 314 314 313 312 313 313 313 313 312 312 311 311 313 314 314 314 315 317 317 315 314 314 314 315 317 319 321 323 324 324 320 315 317 321 316 307 302 301 301 302 302 304 306 307 308 308 309 309 309 309 309 308 309 310 310 309 308 308 309 309 309 308 307 307 307 307 306 305 302 300 298 297 295 293
315 317 317 317 318 315 311 314 317 315 313 313 318 319 314 311 312 313 313 312 311 312 311 311 313 314 314 315 314 313 314 312 311 313 313 312 314 317 320 322 324 323 321 322 326 322 310 302 300 301 301 302 302 303 305 305 305 306 307 307 307 307 308 308 308 309 309 309 308 307 308 307 307 307 306 305 305 304 302 300 298 296 295 293 292 290
314 317 319 317 315 313 313 315 316 315 315 315 317 317 313 311 312 313 313 312 311 311 311 311 310 311 315 316 313 312 314 313 311 312 313 313 312 312 315 320 324 325 324 324 324 317 305 301 301 301 301 301 302 302 303 303 303 304 305 305 306 306 307 307 307 308 308 308 307 307 307 307 306 306 305 303 302 300 298 296 295 293 292 291 289 289
313 316 318 316 313 313 315 315 314 316 317 315 313 313 312 312 312 312 313 313 311 311 310 310 309 310 312 312 311 312 313 311 311 311 312 315 316 313 312 314 316 317 314 309 307 306 304 303 303 303 301 301 301 301 302 302 302 303 303 304 304 304 305 305 305 306 306 306 306 306 305 306 305 304 302 300 298 296 294 293 292 290 290 289 288 288
314 316 320 318 314 314 316 316 316 317 315 314 314 313 312 314 313 311 313 313 312 311 310 309 310 310 309 310 311 312 311 310 311 311 311 317 320 316 312 309 307 303 302 300 300 302 303 303 303 302 301 301 301 301 302 302 302 302 302 302 302 302 302 302 303 304 305 305 305 305 304 304 304 302 300 297 295 293 292 290 290 289 289 289 288 288
314 316 319 317 312 312 315 315 315 315 313 316 319 316 314 316 314 313 315 314 312 313 311 309 310 310 309 309 310 311 312 311 311 310 310 314 315 313 310 309 306 300 297 299 300 301 303 303 302 302 301 300 300 300 301 301 302 302 301 300 300 299 299 300 302 302 304 304 303 303 302 302 301 300 298 295 293 292 290 289 288 288 288 288 288 288
312 312 314 314 312 312 314 314 314 314 312 315 317 313 311 312 312 316 317 314 314 315 313 310 309 310 310 308 308 310 310 310 311 310 311 312 312 311 308 310 314 308 298 298 300 301 302 303 301 300 300 300 300 300 300 300 300 300 299 298 298 298 299 300 301 301 301 301 301 301 300 299 299 298 296 294 292 290 289 288 288 288 288 288 288 287
311 311 312 313 312 311 313 313 313 314 315 318 315 309 308 311 313 315 314 314 317 315 310 310 311 310 309 308 307 307 308 311 315 315 317 317 314 314 307 300 301 301 297 298 301 301 301 302 301 301 301 300 300 299 299 299 298 297 297 296 296 298 299 299 299 298 299 298 298 298 297 296 296 295 293 292 290 289 288 288 288 288 288 288 287 286
311 312 314 313 311 311 313 312 312 314 318 319 312 306 308 312 313 313 314 317 323 318 309 308 311 310 309 308 307 307 309 316 318 315 319 321 316 318 315 302 298 299 297 297 299 300 300 300 299 299 299 298 298 299 298 298 297 296 296 295 296 298 298 297 297 297 296 296 295 295 294 293 293 292 291 290 289 288 288 287 288 288 287 287 286 285
311 312 313 312 311 312 313 312 313 315 314 312 308 306 311 314 314 318 320 317 318 319 314 310 310 310 310 309 308 307 309 315 317 316 321 321 315 315 315 308 304 302 297 294 296 297 298 297 295 296 297 296 297 298 297 297 296 295 294 294 295 296 295 294 295 294 294 294 293 292 292 292 291 290 289 288 288 288 287 287 287 287 286 286 285 284
312 312 312 312 311 312 313 311 312 312 308 307 309 310 311 313 317 323 323 316 314 315 313 312 312 310 309 310 308 307 308 311 313 317 321 319 314 315 315 308 302 297 292 292 296 296 296 296 295 294 295 295 295 296 296 296 295 294 293 293 293 293 293 293 293 293 292 292 292 291 291 290 290 289 288 288 287 287 287 287 286 286 285 285 285 284
312 312 314 315 312 312 313 311 311 310 306 307 311 312 310 311 315 319 318 318 321 315 309 314 319 311 306 309 309 307 308 308 309 313 316 315 317 319 315 307 299 294 291 292 294 294 294 295 294 294 294 294 294 295 295 295 295 294 293 292 292 292 292 292 291 291 291 291 291 290 290 289 288 288 287 287 287 287 287 286 285 285 284 284 284 284
313 314 315 317 315 312 313 312 311 310 307 307 312 316 313 311 314 314 314 318 325 319 311 316 324 316 308 308 309 310 310 308 307 310 311 313 315 313 308 302 295 291 291 291 292 293 294 294 294 293 292 292 293 294 294 294 294 294 293 292 292 292 292 292 291 291 290 290 290 289 288 287 287 286 286 286 286 287 287 286 286 285 284 284 284 283
312 313 314 316 315 312 312 312 311 310 309 307 309 313 314 312 313 315 316 318 324 321 312 310 314 311 307 306 310 315 314 308 307 309 307 308 312 310 307 305 297 289 289 291 292 292 293 292 292 291 290 291 292 292 292 293 293 294 293 292 291 291 291 291 291 290 289 289 288 287 287 286 286 285 285 285 285 285 286 286 285 285 284 284 283 282
312 312 313 316 315 312 312 314 313 314 313 309 308 311 313 313 313 315 317 316 314 311 305 303 304 305 306 306 309 314 315 309 309 312 310 307 307 306 304 301 294 288 289 291 291 292 292 291 291 290 289 290 290 291 291 292 292 292 292 292 291 290 290 290 290 289 288 287 287 286 285 285 285 285 285 285 285 285 285 284 285 285 285 285 284 284
309 310 314 316 314 311 312 313 312 313 312 309 308 310 313 316 315 314 312 310 309 309 308 306 304 304 306 306 304 308 316 315 310 310 311 308 305 304 301 295 290 288 289 289 290 291 291 290 290 290 289 289 290 290 290 290 290 290 291 291 290 290 290 289 288 287 286 285 285 285 284 284 284 285 285 284 284 284 284 284 284 284 285 285 285 285
309 311 312 313 312 312 312 310 308 310 312 311 309 309 311 312 313 312 311 312 314 316 315 312 307 303 302 303 301 305 315 317 307 304 308 308 304 301 296 290 287 288 288 288 289 290 290 290 290 289 289 289 288 289 288 288 289 289 289 290 290 289 289 288 286 284 284 283 283 283 283 283 283 283 284 284 283 283 283 283 283 283 284 284 284 284
311 312 310 311 312 312 312 310 309 311 313 312 310 310 309 309 310 312 313 314 315 314 312 313 314 311 306 302 299 300 308 312 305 301 306 305 297 293 291 289 288 288 287 287 288 288 288 289 289 288 288 288 287 288 288 287 288 288 288 288 289 289 288 287 285 283 282 282 282 282 282 282 283 283 283 283 282 282 282 281 281 282 282 283 283 284
Wind_Speed
3 4 6 7 7 8 9 8 6 4 5 6 4 4 5 5 4 4 2 5 1 2 5 6 6 7 10 14 10 3 2 4 6 6 7 8 8 7 8 8 9 11 13 16 19 19 22 26 28 29 29 29 29 30 31 33 35 35 35 35 37 38 37 36 35 34 34 34 33 32 34 35 33 32 32 32 32 31 31 29 27 26 25 24 24 23
4 8 8 7 7 8 9 6 5 4 4 6 6 5 4 5 5 4 3 3 1 3 4 3 4 8 9 14 11 5 4 6 8 8 9 10 10 7 8 10 11 10 10 10 14 17 21 24 26 28 29 29 30 32 34 34 35 36 36 38 38 38 37 37 37 36 36 36 35 34 34 33 31 31 32 33 33 33 32 31 29 28 26 26 25 24
5 7 6 7 7 7 6 6 6 5 4 5 4 4 5 4 3 5 3 2 0 4 4 2 2 8 9 14 14 7 7 9 9 10 10 11 9 7 8 11 11 10 9 9 12 15 20 24 24 26 28 31 33 34 35 35 35 36 37 39 39 37 37 38 38 38 38 38 37 35 34 32 30 31 33 33 33 33 33 32 31 30 28 27 26 25
5 5 8 8 6 8 6 6 7 5 3 4 3 4 4 2 2 4 3 2 1 1 2 1 2 6 7 10 13 10 8 9 9 10 10 9 8 10 11 10 10 11 12 12 11 12 17 21 22 25 29 32 34 34 34 34 35 37 39 39 38 38 38 39 40 40 39 38 36 35 33 32 30 30 31 31 32 33 32 32 32 31 30 29 27 26
5 4 7 7 5 8 6 4 7 5 5 4 4 5 3 2 3 4 1 2 3 2 1 1 4 6 5 8 12 7 4 7 9 8 9 9 9 10 8 8 9 11 12 13 12 11 13 18 23 28 30 31 32 34 36 37 38 39 40 39 39 39 39 40 40 40 38 36 34 32 30 27 26 27 27 27 30 31 30 31 31 31 30 29 28 27
5 4 8 10 6 8 7 6 7 7 5 5 5 7 6 6 4 2 0 1 2 3 2 1 3 7 4 7 12 7 3 7 7 6 9 10 9 8 8 10 11 11 12 11 12 10 11 18 23 26 28 29 31 35 37 38 39 40 40 39 39 40 40 40 39 39 38 37 35 32 30 27 25 25 27 28 30 29 28 29 29 28 28 28 28 28
5 5 9 12 9 8 7 6 6 8 6 4 6 9 7 6 4 2 2 1 2 4 3 1 5 7 5 6 10 7 6 8 8 8 10 9 8 8 9 11 11 11 11 10 11 10 10 16 19 22 27 30 33 36 36 37 38 39 38 38 39 40 40 39 39 38 38 38 37 35 34 32 30 29 29 30 30 28 27 27 26 26 26 26 26 27
8 8 7 11 10 8 8 8 8 10 7 4 5 10 9 7 7 6 4 3 3 2 3 0 2 5 6 6 7 3 5 9 8 10 11 9 9 10 11 12 12 12 11 10 11 10 11 16 19 24 29 32 35 36 35 36 37 38 38 38 39 39 40 39 39 39 39 39 38 36 36 35 34 33 31 30 28 27 26 25 25 25 24 25 25 25
9 12 12 14 12 9 9 7 9 11 7 5 3 7 7 6 6 6 5 5 1 3 5 3 1 4 7 6 3 1 5 11 9 9 12 10 10 11 12 12 12 12 11 10 11 11 13 18 24 28 29 31 35 35 34 36 36 37 37 37 36 38 39 39 38 39 39 40 39 38 37 35 35 33 31 28 26 25 24 24 24 23 23 23 23 24
4 9 13 14 10 8 6 6 10 12 7 3 5 6 4 3 2 1 3 2 2 3 8 4 3 5 8 6 3 1 5 9 7 8 11 11 10 10 10 10 10 9 9 9 10 12 15 20 24 26 26 27 29 30 31 33 33 33 34 34 35 36 37 38 38 39 39 39 39 38 37 36 34 32 30 27 25 24 22 22 23 23 23 23 23 24
2 0 5 7 6 6 6 5 5 10 8 5 6 6 6 4 4 3 1 3 2 6 6 3 6 4 8 6 7 4 5 7 7 7 9 10 10 9 8 8 9 8 7 7 8 11 14 18 19 20 23 24 23 24 27 29 30 31 32 33 34 36 36 36 37 38 39 39 39 39 38 36 35 32 30 29 26 25 23 23 23 23 23 24 24 24
4 4 3 2 1 5 8 4 2 3 6 7 5 4 3 1 3 3 3 3 3 7 3 2 3 5 8 7 5 5 6 6 8 8 10 12 10 8 8 8 7 6 6 6 7 8 10 12 13 15 19 21 20 21 24 27 29 30 31 32 34 35 35 35 36 37 38 38 38 39 38 37 36 33 32 31 30 29 27 26 25 24 23 23 23 23
3 1 2 1 1 4 9 5 2 5 3 5 4 5 4 0 1 2 2 1 5 6 2 2 2 4 9 7 3 6 7 7 9 9 11 12 9 8 8 7 6 5 5 5 6 7 6 6 9 13 16 18 20 21 23 25 27 30 31 32 33 34 35 35 35 36 37 38 38 38 38 37 36 35 34 34 32 32 31 29 28 27 26 25 24 23
2 4 2 3 2 3 9 9 4 2 4 7 6 7 7 4 4 7 4 2 5 5 2 2 2 4 6 5 6 9 9 11 10 9 10 10 9 10 8 7 6 6 6 5 5 5 5 6 8 11 15 17 19 20 22 23 25 27 29 30 31 32 33 34 34 35 36 37 37 38 37 37 36 35 35 34 34 33 32 31 30 29 28 27 25 25
9 4 5 8 3 5 11 9 7 7 6 6 5 5 6 5 5 6 5 3 4 3 2 2 3 4 3 3 7 10 9 10 7 6 8 8 9 9 7 8 8 8 7 4 4 5 5 6 7 9 11 13 14 16 18 21 22 24 26 28 30 30 30 31 33 34 35 36 36 36 36 36 36 35 35 34 34 33 32 31 30 29 28 27 26 24
11 6 3 2 1 9 12 6 6 9 5 3 3 4 5 6 5 3 3 4 3 1 3 3 4 4 4 6 9 6 7 9 8 7 7 9 9 6 7 9 9 9 7 4 4 4 4 5 6 8 8 8 9 11 13 16 19 22 24 26 28 29 29 30 32 33 35 35 35 35 35 34 34 34 33 33 32 31 31 30 29 28 27 26 24 22
8 4 3 3 2 8 10 7 6 7 6 2 3 6 6 4 7 4 2 0 3 3 4 2 5 6 3 8 10 6 6 8 8 8 8 11 9 6 8 8 8 10 7 5 4 4 4 3 4 6 7 7 8 9 10 11 13 17 20 23 26 27 28 29 30 31 33 33 33 33 33 32 32 32 32 31 31 30 29 27 27 26 25 24 23 21
6 2 2 1 4 3 2 5 4 2 5 6 5 7 3 2 3 3 2 1 2 5 4 1 6 6 3 6 6 4 7 10 11 9 8 9 7 7 9 8 9 9 6 4 4 4 4 3 3 5 7 7 8 7 8 9 10 12 14 18 22 25 27 27 28 29 29 30 31 31 30 30 30 30 30 29 28 27 27 26 26 25 24 23 22 20
5 4 3 2 5 1 1 5 4 1 2 5 6 6 5 3 3 2 2 3 3 4 5 3 4 4 7 6 3 3 8 12 14 10 6 8 8 8 9 9 8 7 5 5 5 5 4 3 4 5 6 7 7 7 7 8 10 11 11 12 15 18 21 23 24 25 26 26 27 28 28 28 28 28 27 26 25 25 25 25 25 25 24 23 21 19
5 5 1 2 2 2 1 3 8 6 1 2 3 4 3 3 4 3 3 4 4 4 5 4 4 4 7 7 5 7 8 10 13 10 7 9 9 8 9 8 7 6 5 5 5 5 4 4 5 6 7 7 7 7 6 7 8 10 11 11 11 12 14 17 19 21 23 23 24 24 25 25 25 25 25 24 24 24 24 24 24 23 22 20 19 18
4 4 3 0 0 3 3 4 9 10 6 3 4 6 4 1 2 2 2 2 3 4 4 2 5 7 6 5 9 10 9 11 13 11 8 8 7 8 7 5 4 4 5 5 5 4 4 4 5 6 7 8 8 8 7 7 8 9 11 12 12 13 13 15 16 18 19 21 21 22 22 23 23 23 23 23 23 23 22 22 21 20 19 18 18 19
3 3 6 4 2 4 4 4 3 8 9 8 6 7 6 4 4 3 5 3 3 3 5 3 6 9 5 5 8 10 11 13 11 8 7 7 7 7 6 5 4 5 5 5 5 5 4 4 6 7 8 8 8 8 8 8 8 9 10 12 13 14 15 15 16 17 17 18 19 19 19 20 20 20 20 21 21 20 20 20 19 18 18 19 21 23
3 5 6 3 3 4 3 3 1 1 4 6 5 6 7 6 6 7 7 4 2 1 2 4 4 9 4 5 7 8 9 7 4 3 5 7 7 5 6 6 5 4 4 4 4 4 3 4 7 8 8 8 8 7 7 7 8 9 10 12 13 15 15 16 16 16 16 17 17 17 17 17 18 18 19 19 20 19 19 19 19 20 21 23 25 25
4 5 5 3 1 3 4 4 3 3 1 4 6 6 8 7 7 6 4 4 3 4 3 2 5 9 5 1 3 6 7 7 5 3 4 6 6 4 5 6 4 3 2 2 3 2 2 4 6 7 7 8 8 7 7 7 8 9 10 11 12 14 15 16 16 16 17 17 16 16 17 18 18 18 19 20 20 20 20 22 23 24 25 26 25 22
4 4 6 5 2 2 3 3 3 3 4 4 3 3 5 4 6 5 2 4 3 6 7 5 7 8 4 4 4 6 7 8 9 6 5 6 6 5 5 4 4 4 3 3 4 2 2 3 4 5 7 8 9 9 8 8 8 10 10 10 11 13 15 16 16 18 18 18 18 19 19 19 20 20 20 22 22 22 23 25 26 25 25 24 23 21
3 5 6 8 9 8 8 6 4 5 4 1 1 4 5 6 8 6 4 4 6 6 7 7 10 8 5 5 6 6 5 8 9 5 4 6 5 5 5 4 4 4 4 5 5 3 3 3 3 5 8 9 10 11 10 9 10 11 12 11 12 14 16 17 17 19 19 19 20 21 20 21 21 21 22 24 25 26 27 27 26 25 24 23 22 21
3 4 6 9 11 11 9 5 4 7 7 3 2 6 6 6 7 6 5 5 7 2 3 10 12 9 7 5 6 7 5 7 7 5 6 6 5 5 5 4 4 4 4 4 4 4 4 4 4 6 8 10 11 11 11 11 12 14 15 14 15 16 17 18 18 19 20 20 20 21 21 21 22 21 22 25 26 27 27 27 25 24 24 22 20 19
4 6 9 12 14 11 7 5 7 11 11 10 9 9 10 9 8 8 6 11 7 5 9 16 12 12 12 6 7 8 6 7 7 5 6 6 5 5 4 3 4 4 5 4 5 5 5 6 5 6 9 11 12 12 13 13 13 15 16 16 17 17 18 19 19 19 20 20 21 21 21 22 23 23 25 26 26 25 25 25 24 23 22 21 20 19
6 8 10 12 12 8 6 7 10 10 9 12 14 14 14 14 14 13 15 19 12 8 18 15 11 17 14 7 9 10 7 7 6 5 5 3 3 3 3 3 4 5 6 6 7 7 7 7 6 7 10 13 14 14 14 14 15 16 17 17 18 18 19 19 19 20 21 21 22 22 22 23 24 25 26 26 26 25 24 23 22 21 20 20 20 20
7 8 10 12 10 7 6 7 10 10 7 8 12 15 15 15 17 16 20 25 19 20 22 7 3 12 10 7 11 8 5 6 4 3 2 1 3 5 5 6 7 7 7 7 8 8 8 8 7 8 11 13 14 15 16 17 17 18 18 19 20 20 19 20 20 21 22 22 23 23 22 22 23 23 24 25 25 25 24 23 21 20 19 20 21 22
6 7 8 9 7 5 5 5 6 8 8 8 10 12 12 14 16 19 25 25 18 21 21 6 3 8 6 6 8 4 3 4 4 5 5 4 6 6 6 7 7 7 8 9 9 8 7 8 7 8 10 13 16 17 18 19 19 20 19 19 20 20 20 20 21 21 21 21 22 23 23 22 22 21 22 24 24 24 24 23 21 20 21 22 24 26
7 5 5 7 7 5 3 6 7 6 7 5 6 11 15 17 19 20 21 16 13 14 14 10 9 8 5 4 4 2 3 5 6 7 6 7 7 7 8 9 8 9 10 10 10 9 9 9 9 9 11 14 17 20 20 21 21 20 20 20 20 20 21 21 21 21 21 20 21 22 23 23 22 21 22 24 25 25 25 23 22 23 25 27 29 30
6 6 4 7 9 3 1 6 9 8 6 2 8 15 21 20 18 16 12 11 13 12 11 12 10 6 6 6 5 4 5 7 8 8 7 8 8 8 8 9 9 10 11 10 11 11 10 10 10 11 13 16 19 22 23 23 23 23 22 21 21 21 22 21 21 21 21 21 22 23 23 24 24 24 25 26 27 26 26 25 25 27 29 31 32 33
7 8 4 5 5 1 2 6 9 6 7 9 8 12 18 17 15 14 14 14 14 12 12 13 6 6 9 11 9 8 8 8 9 9 9 8 7 8 9 10 10 11 11 10 10 10 9 8 9 12 15 19 21 23 23 24 24 23 22 22 22 23 23 22 22 22 21 22 24 25 26 26 27 27 27 27 26 26 26 27 29 31 33 34 34 34
8 7 4 3 4 2 3 5 6 7 12 7 1 6 12 16 17 18 21 21 18 17 19 16 10 7 8 9 10 11 11 11 9 9 10 9 8 9 9 10 11 11 11 10 9 8 7 7 11 15 18 20 21 22 24 24 24 23 23 23 23 23 24 24 24 23 23 24 26 27 28 28 28 28 27 26 26 27 28 31 33 34 35 35 35 34
10 7 3 2 4 3 3 5 6 7 5 2 1 3 5 11 14 16 20 20 17 14 14 15 14 10 8 9 11 9 8 8 7 7 9 9 8 9 9 10 12 12 11 8 7 8 10 13 18 20 20 20 21 23 25 25 24 24 24 24 24 24 25 25 25 25 26 27 28 28 29 29 28 28 27 28 29 30 32 33 35 36 36 35 34 33
9 8 5 2 1 2 3 4 3 4 6 8 9 7 8 10 11 11 12 14 12 12 12 14 16 14 12 12 9 4 1 3 6 10 9 8 9 11 12 12 10 8 7 7 9 11 14 16 19 18 18 20 22 25 26 26 25 25 25 25 25 25 25 26 26 27 28 29 29 30 30 30 29 29 30 31 32 33 34 35 36 37 37 36 35 33
8 8 7 5 1 3 3 1 2 3 10 14 10 8 9 8 9 11 7 13 13 16 17 17 16 15 14 11 7 3 3 2 8 11 8 9 12 14 14 12 7 4 7 9 10 11 11 12 15 16 18 20 23 26 27 27 27 26 26 27 27 26 25 26 27 28 29 30 31 31 31 31 31 31 32 33 34 35 35 36 37 36 36 36 35 34
6 6 7 6 3 3 5 5 5 9 12 8 6 8 9 11 13 13 1 12 10 13 15 15 15 15 14 13 10 7 6 6 11 12 10 13 14 11 10 9 7 8 12 12 10 10 10 11 13 15 18 21 24 26 28 29 29 28 27 28 28 27 27 28 29 30 31 31 31 31 31 31 32 33 34 35 35 36 36 36 36 36 35 35 35 34
7 6 8 9 7 8 10 8 6 7 9 5 7 10 12 15 17 12 4 12 8 13 15 17 17 17 16 14 11 8 9 12 13 11 10 11 10 7 8 8 8 10 13 12 10 10 11 12 15 17 21 24 26 27 28 29 30 29 28 28 28 29 30 32 30 30 30 30 30 31 32 32 33 34 36 37 36 36 36 36 36 35 35 35 34 34
5 5 6 9 10 10 12 9 5 5 7 6 6 10 15 16 13 8 11 10 6 10 12 15 18 18 16 14 11 10 15 13 6 3 5 9 8 7 6 6 6 7 10 11 11 11 13 16 18 19 21 23 24 26 29 30 29 28 27 27 29 31 32 30 28 28 29 29 30 31 32 33 34 34 36 36 36 36 36 35 36 36 36 35 35 34
6 5 4 6 9 7 7 8 5 6 7 7 6 7 11 12 7 9 7 2 4 7 8 10 14 14 12 12 13 14 13 6 3 2 3 7 8 6 4 4 4 5 6 8 10 13 15 17 17 17 18 19 22 26 30 31 29 27 27 28 30 31 29 26 26 27 28 29 30 31 32 32 33 34 35 35 36 37 36 35 35 36 36 36 35 34
10 9 7 7 6 3 3 6 6 8 7 13 14 4 5 6 7 6 3 3 2 7 8 8 10 8 9 10 13 14 10 4 3 3 3 4 4 3 3 4 5 5 7 8 10 14 15 15 15 16 15 17 21 25 29 30 28 26 26 26 27 26 25 25 26 27 28 29 30 31 32 33 33 34 35 35 36 37 37 36 36 36 36 36 35 34
10 10 9 8 6 6 7 10 7 4 6 16 17 10 9 7 5 5 6 3 3 4 6 7 7 8 10 11 12 13 10 6 6 6 5 5 5 4 4 5 5 6 7 8 10 13 15 14 13 13 14 16 20 24 28 30 27 24 24 24 23 23 24 24 26 27 28 30 31 31 32 32 33 34 35 36 36 37 37 37 36 35 35 35 35 35
12 11 8 7 7 7 8 8 5 2 6 12 11 9 12 11 4 3 7 5 3 5 5 5 6 8 9 10 10 9 9 9 9 8 7 7 7 6 5 5 5 6 7 7 8 12 14 14 13 14 14 16 20 24 27 28 27 24 24 23 23 24 25 25 27 28 29 30 31 32 32 32 33 33 35 36 37 38 38 38 37 36 35 34 35 34
5 5 5 4 3 4 5 4 4 1 4 9 4 1 7 11 5 3 5 4 4 6 6 5 7 9 9 9 8 7 9 11 10 9 8 8 7 6 5 5 5 6 7 8 9 12 13 12 13 15 15 16 20 23 26 27 27 25 25 24 24 25 26 27 28 29 30 31 32 33 33 33 33 33 34 35 36 37 38 39 39 37 36 35 34 33
2 4 5 3 4 6 9 8 8 5 6 9 6 3 2 5 5 4 5 4 4 5 6 5 4 7 8 9 10 10 9 9 9 8 8 7 7 7 6 6 6 8 10 11 12 14 15 14 14 16 16 18 21 23 25 26 25 24 24 25 25 26 26 28 29 30 31 32 33 33 34 35 35 34 34 35 35 35 36 37 39 39 38 37 35 32
3 5 6 4 6 8 8 5 5 5 7 9 9 5 3 5 7 6 4 2 1 1 2 2 3 5 7 8 10 9 7 7 9 9 7 7 7 6 6 6 7 9 11 12 14 16 17 16 16 17 17 19 21 23 24 25 24 23 23 24 25 26 27 28 30 31 32 33 33 34 34 35 35 36 36 36 36 36 36 37 38 39 39 39 38 36
5 6 6 6 6 5 4 2 4 3 6 8 7 6 5 6 8 8 4 2 1 0 2 3 3 4 6 7 7 7 7 7 9 8 7 7 7 6 6 7 8 9 11 13 15 17 18 17 17 18 17 17 19 22 23 23 23 23 23 24 26 27 28 29 30 31 31 32 33 33 34 34 35 36 37 37 35 35 35 36 38 38 38 37 37 37
7 7 6 5 7 10 10 8 10 7 5 6 7 9 10 8 7 7 5 3 4 5 6 5 3 2 4 4 5 7 8 7 7 7 7 6 6 6 6 6 8 10 11 13 14 16 17 16 15 16 15 15 17 20 22 22 23 22 23 24 26 27 29 31 30 29 30 31 32 33 34 34 34 35 36 36 35 33 32 32 33 34 34 33 34 34
8 10 10 8 10 13 10 9 10 7 5 7 9 12 12 8 8 9 9 9 10 7 6 7 6 4 4 4 3 6 7 6 6 7 6 4 4 5 6 8 9 10 11 13 14 15 15 14 12 13 13 13 16 19 21 22 22 23 23 25 26 28 30 31 31 30 30 31 33 34 34 34 35 35 34 35 35 34 32 30 28 29 29 29 30 30
Wind_Direction
161 163 196 196 185 189 195 200 188 175 196 188 171 200 201 194 248 254 249 317 7 184 256 231 233 238 238 259 260 198 147 219 249 260 250 246 241 231 229 234 233 232 239 248 247 241 236 235 233 230 229 228 229 230 229 228 227 226 226 226 228 228 227 227 226 225 225 225 226 227 230 233 235 236 238 240 241 242 244 244 244 245 245 246 247 247
174 194 197 182 181 191 193 185 155 140 167 177 182 196 217 208 235 254 222 306 9 174 270 294 247 257 253 262 262 182 173 240 233 231 241 242 239 230 229 236 238 241 249 255 249 239 234 234 232 229 227 225 226 227 227 227 227 226 227 227 228 228 227 226 226 226 226 226 226 227 229 231 233 235 237 239 241 243 245 244 245 245 245 245 245 247
192 203 185 169 175 177 181 183 182 192 169 163 166 165 213 221 234 264 247 292 72 175 254 309 227 255 255 259 263 229 209 240 228 221 232 234 234 228 223 232 238 247 255 250 244 236 229 230 229 226 225 224 225 227 227 227 226 226 227 227 227 227 226 227 227 227 228 229 230 231 232 232 233 237 239 241 243 246 247 246 245 244 244 244 244 246
189 205 188 174 166 164 175 185 184 209 204 165 140 148 209 221 179 242 264 296 285 156 213 180 260 263 256 266 268 242 218 245 243 231 236 234 227 225 225 229 231 236 244 245 243 234 226 227 225 222 223 223 224 225 225 224 225 225 226 226 225 225 226 227 228 228 229 231 232 233 235 236 237 240 242 243 244 245 245 246 245 243 242 241 242 244
192 213 174 149 151 166 166 178 174 195 225 211 179 164 177 181 195 227 274 285 287 345 84 98 315 277 235 251 262 247 212 255 255 239 246 245 233 236 245 243 231 230 235 239 239 232 219 219 222 222 223 222 221 222 224 223 223 225 226 226 225 225 226 227 228 229 228 228 229 229 229 232 234 237 237 237 238 239 240 242 243 242 241 240 241 242
210 216 153 143 169 175 170 193 184 178 205 241 212 175 170 186 210 251 259 17 327 308 295 130 275 274 254 241 249 258 260 256 257 242 241 244 237 236 247 245 236 235 236 236 240 235 219 219 224 225 223 221 221 223 224 224 225 226 225 225 225 225 225 225 226 227 227 226 224 222 220 220 222 226 229 230 233 234 235 239 241 243 243 242 242 241
199 188 157 159 174 171 180 209 194 167 170 243 212 167 172 202 225 233 167 161 217 258 287 154 223 264 295 253 238 256 273 262 266 264 251 247 244 228 231 239 235 236 237 235 241 237 224 222 222 224 224 220 222 226 227 226 226 226 225 224 225 225 224 224 225 225 226 224 222 221 221 221 221 224 229 233 235 236 236 239 241 244 246 246 246 245
161 156 156 160 160 168 196 210 190 167 163 233 203 156 170 205 225 217 183 218 235 277 294 208 216 268 278 251 231 241 284 276 272 269 263 251 245 235 230 236 234 234 234 229 236 233 226 225 220 222 224 223 226 229 227 225 225 225 224 224 225 225 225 224 224 224 224 223 221 222 223 224 225 227 231 234 237 237 238 240 242 244 248 250 250 250
143 162 175 166 167 189 200 186 163 159 180 237 175 141 171 192 213 213 200 230 292 344 266 227 82 271 264 258 246 182 256 262 262 263 265 255 244 239 235 236 235 237 236 228 231 232 228 227 224 225 226 228 230 228 225 225 225 225 224 223 223 224 224 224 223 223 224 224 222 222 223 224 227 229 232 235 236 236 235 236 239 242 245 249 251 252
163 185 176 163 176 193 171 138 151 165 193 221 118 90 66 84 69 126 189 201 46 293 252 208 159 247 267 246 203 205 246 248 256 258 260 256 248 246 246 244 242 242 242 235 234 237 236 234 232 231 230 232 231 228 226 226 225 224 223 222 222 223 224 223 223 223 223 223 222 222 222 223 226 228 230 232 233 233 231 232 234 237 240 244 247 249
287 75 150 158 185 176 128 100 154 168 160 125 106 71 49 52 46 52 82 81 98 263 268 204 175 215 276 247 175 200 218 202 223 249 261 262 259 257 255 250 247 247 247 243 243 248 248 246 242 236 234 233 232 229 227 225 224 223 223 222 222 223 223 223 223 222 223 223 222 222 222 223 225 225 225 226 226 227 227 227 230 233 238 242 245 248
24 75 167 223 190 136 116 100 32 115 135 129 124 114 94 10 27 36 7 66 203 247 278 263 170 167 252 245 165 217 235 200 207 219 243 254 257 259 257 251 246 247 250 251 252 255 255 250 242 233 231 231 229 226 224 223 223 222 223 222 222 223 223 223 222 222 222 222 222 223 223 224 224 224 224 223 223 225 225 226 229 233 237 241 244 246
61 140 236 311 292 150 134 139 19 27 111 143 136 141 150 305 28 207 251 185 229 249 230 191 154 187 243 251 225 258 268 242 223 213 230 246 254 257 258 255 252 250 250 250 251 254 255 248 236 229 229 228 224 222 222 222 221 221 222 221 221 222 222 222 222 222 222 222 222 223 223 224 225 224 225 225 225 227 228 229 231 234 236 237 239 241
176 300 284 164 256 193 156 163 178 160 168 169 165 169 173 169 181 205 217 223 244 253 232 176 170 244 271 272 232 234 245 242 235 231 236 242 247 249 258 271 280 279 260 244 244 247 244 241 238 232 229 228 227 225 223 222 220 219 219 219 220 222 222 221 221 221 221 222 223 224 224 225 224 224 226 227 228 230 231 233 234 237 240 239 241 243
178 240 214 180 200 184 174 179 164 139 159 182 160 147 179 188 183 195 199 210 228 245 274 234 191 208 224 257 233 226 251 267 267 263 256 254 252 252 273 283 281 278 265 242 238 244 243 239 236 230 225 224 226 226 224 222 221 219 218 218 219 220 220 220 220 220 221 222 223 224 225 225 225 225 227 228 230 232 233 234 236 238 241 242 245 248
180 219 243 187 156 165 170 175 125 115 145 210 123 129 209 202 146 128 185 182 166 207 255 221 223 220 206 276 274 248 267 278 275 278 272 266 262 257 266 265 261 264 260 238 233 246 256 249 233 222 212 208 207 210 215 218 220 220 219 219 219 220 221 219 220 221 222 223 223 224 224 225 225 226 227 229 230 232 234 235 237 239 242 244 246 248
179 221 329 29 103 172 168 162 158 158 167 157 149 184 212 174 122 110 230 34 87 210 248 206 247 285 311 285 273 247 263 281 274 269 260 258 260 252 251 248 248 254 251 234 226 233 252 256 228 212 202 196 194 196 205 210 216 220 221 221 219 220 220 219 220 221 222 222 222 223 224 224 226 226 227 229 230 232 234 236 238 240 242 243 243 245
162 122 338 106 148 200 171 132 149 190 148 135 190 196 144 92 117 116 207 330 89 223 269 250 239 268 275 266 274 242 250 270 266 253 250 262 263 248 248 243 240 246 245 243 239 240 250 244 215 199 187 186 188 194 204 206 210 214 217 221 221 220 219 219 219 219 220 221 220 222 222 223 225 227 228 230 232 233 233 233 235 236 238 239 240 241
145 110 317 250 151 162 20 118 140 300 132 146 190 183 135 164 209 140 172 196 180 229 275 303 280 258 217 231 300 273 239 249 258 257 254 259 250 241 248 247 242 244 242 243 242 239 230 199 191 181 171 177 181 187 200 203 206 207 207 213 218 222 222 220 219 218 218 219 220 222 222 223 225 226 229 230 230 231 230 231 232 232 233 235 233 232
142 127 250 263 173 143 97 165 186 197 171 83 141 173 165 169 184 173 169 171 172 214 249 297 317 262 219 201 196 230 240 242 252 263 258 246 239 235 243 246 245 241 229 228 230 227 205 173 175 171 166 169 172 179 188 193 199 202 204 205 206 211 215 216 216 216 216 217 218 220 221 223 223 223 225 225 226 226 226 227 228 228 228 227 222 221
142 134 148 225 347 153 179 217 194 174 162 148 155 178 189 145 145 169 174 152 149 182 210 266 282 259 239 190 186 208 232 242 245 251 252 252 251 246 251 264 270 255 233 225 221 212 188 166 167 163 161 161 163 168 174 180 188 193 199 202 202 201 200 201 203 206 209 210 211 214 215 215 217 218 219 220 221 222 222 222 222 220 217 212 206 201
166 139 140 144 154 182 227 268 195 168 173 176 177 185 180 149 122 161 221 211 115 166 185 184 268 268 248 194 195 197 212 235 243 235 240 259 264 263 278 286 264 248 238 224 208 196 176 165 167 160 157 159 159 162 165 171 177 182 189 194 196 197 195 194 193 194 199 200 201 205 207 208 209 210 212 213 213 213 214 213 210 206 202 196 190 184
116 104 121 138 185 207 265 317 325 221 170 161 196 198 171 166 163 176 216 211 98 222 175 117 268 274 255 197 211 216 222 247 266 216 238 269 272 268 284 281 257 243 243 221 189 186 175 168 169 160 156 155 153 157 164 168 174 179 183 185 188 190 190 189 188 189 190 191 192 194 196 198 197 198 203 204 202 202 202 201 196 193 191 185 179 175
129 118 114 79 315 305 335 356 352 335 115 169 231 205 166 187 189 170 188 162 148 226 187 118 262 270 286 287 257 268 281 301 299 251 248 279 293 294 289 282 256 220 210 172 153 165 172 168 167 159 154 154 153 159 167 172 176 175 174 178 182 182 182 181 181 181 180 178 180 181 184 186 186 189 192 191 190 190 190 187 182 180 179 174 170 169
151 144 130 115 103 9 348 329 302 263 208 197 225 168 150 153 126 118 119 115 197 221 167 166 248 256 282 326 311 296 301 292 274 252 233 254 286 311 312 295 252 206 173 162 162 165 181 178 172 168 164 162 163 167 172 177 174 166 164 169 172 171 172 172 173 173 171 172 173 173 176 177 178 181 182 180 180 179 178 174 170 170 171 168 167 167
129 160 156 153 165 178 193 207 207 197 188 203 107 123 153 149 138 156 139 133 226 222 148 184 240 259 301 328 311 303 302 282 273 276 269 251 257 282 288 279 248 211 187 183 182 185 191 184 175 178 179 177 175 173 176 178 171 162 160 162 166 165 164 166 170 170 169 170 171 169 171 172 172 175 177 175 173 171 170 168 165 166 168 168 167 167
117 171 176 177 189 195 191 180 143 128 131 168 141 123 148 150 143 141 121 174 213 156 153 225 236 254 275 288 298 300 282 267 277 309 307 274 252 257 258 262 261 239 223 208 201 202 194 188 195 194 192 190 185 181 182 181 173 166 163 162 165 166 165 166 169 170 169 171 170 168 169 171 172 174 176 172 169 167 166 166 167 168 168 170 172 173
117 188 189 187 201 200 171 159 150 137 151 170 154 150 164 157 151 149 178 214 186 115 245 239 220 234 245 235 262 276 264 262 271 272 271 265 250 247 243 262 277 260 250 239 222 215 203 202 204 199 198 196 191 188 185 183 180 174 170 167 167 167 167 169 171 172 171 170 171 169 169 172 173 174 175 171 168 168 166 165 167 168 168 172 176 177
148 203 195 185 199 189 145 161 164 150 160 169 164 172 172 167 177 183 208 222 194 191 243 234 200 229 236 201 227 245 233 238 250 247 252 269 267 252 228 231 242 241 241 236 228 220 210 209 204 198 201 197 193 190 184 182 182 179 177 176 174 172 170 171 172 173 172 171 172 171 168 171 172 171 172 170 168 169 169 167 167 168 170 172 175 175
168 197 187 176 183 171 148 166 164 149 144 161 178 183 172 176 190 193 215 226 213 216 235 224 169 245 241 194 220 238 220 224 260 290 272 249 253 247 232 226 227 233 236 232 230 225 215 211 204 201 202 197 193 190 185 184 183 183 184 183 181 180 178 177 177 175 174 173 174 173 170 170 170 169 170 169 168 168 169 169 169 171 174 174 174 172
198 190 167 156 162 173 161 134 133 144 147 161 187 188 178 186 197 205 219 225 218 225 236 250 331 276 257 215 226 259 279 249 274 284 263 241 237 231 234 239 236 238 238 236 235 228 220 218 209 205 204 199 196 191 188 189 186 186 189 187 187 189 187 188 187 185 182 180 178 178 178 176 174 173 173 172 171 170 170 171 172 174 175 172 169 166
195 180 134 141 169 208 191 121 108 104 107 125 187 193 191 195 202 213 222 218 214 225 233 250 265 255 238 233 235 271 272 244 245 252 249 249 235 214 223 236 235 238 237 235 232 222 218 217 211 210 207 199 197 194 191 190 188 189 190 189 190 190 188 190 191 190 189 187 184 182 181 181 180 181 181 178 176 174 173 174 174 173 171 167 164 162
155 145 130 163 178 235 289 132 119 98 99 200 223 203 199 204 210 222 234 225 217 215 213 230 238 201 179 204 216 231 235 230 236 232 223 236 232 215 223 230 229 236 236 230 224 216 217 218 212 212 208 201 201 199 195 193 191 192 192 190 190 187 184 185 186 186 188 189 189 185 181 181 182 181 180 178 176 174 173 174 173 170 167 164 161 160
138 136 151 174 157 230 256 133 112 127 198 227 223 189 193 205 211 222 235 230 218 214 220 230 220 152 172 199 211 220 222 219 224 222 219 223 214 209 227 233 234 239 239 232 224 218 219 217 213 214 212 209 206 202 199 198 196 195 193 191 190 186 183 182 181 182 184 184 184 182 180 179 178 176 175 174 174 175 174 173 170 167 165 163 161 160
138 130 150 146 106 144 193 123 126 208 224 230 157 151 188 203 204 214 229 228 217 217 225 230 227 197 190 207 216 220 228 233 232 231 231 225 205 202 219 229 232 235 236 233 230 226 216 201 205 212 213 210 206 200 198 197 195 193 191 191 191 188 186 185 182 183 184 183 181 180 179 178 177 177 177 177 178 177 174 171 167 164 163 162 162 162
139 131 130 94 91 131 152 149 184 227 255 271 41 93 182 202 201 212 234 237 222 219 228 229 230 223 205 217 226 224 241 265 277 260 239 226 216 211 214 223 227 228 231 229 221 215 210 207 210 212 210 205 200 197 196 194 192 189 187 189 191 190 189 189 187 186 186 186 185 183 183 183 182 182 181 180 178 175 172 169 166 164 163 162 162 161
140 137 119 91 104 120 131 192 232 327 311 256 232 199 185 192 187 193 234 249 220 204 217 220 222 222 213 218 230 233 301 314 290 268 245 225 225 221 218 226 230 227 231 231 227 227 225 222 219 212 206 200 196 196 195 191 190 187 185 187 190 191 192 191 191 191 189 189 190 189 188 187 186 184 180 178 175 172 171 169 166 165 165 163 161 161
146 147 142 152 175 83 101 215 282 286 257 245 227 186 167 168 156 152 211 254 223 200 210 213 213 217 213 212 216 168 121 187 248 256 239 217 225 224 223 234 243 233 232 230 230 233 227 218 212 206 202 196 194 197 194 189 188 186 184 186 189 191 194 194 196 195 193 193 193 191 191 189 188 185 180 177 175 172 171 170 167 167 167 166 164 162
137 136 141 153 151 127 165 199 205 222 241 234 169 150 143 143 129 114 213 265 224 187 200 206 206 211 206 202 195 158 141 200 238 246 229 218 225 218 215 234 244 238 240 236 231 227 213 201 197 194 194 194 195 197 194 189 188 185 185 187 188 190 196 199 201 199 197 196 194 192 192 190 189 186 181 178 176 174 173 171 168 167 167 167 166 163
155 162 168 177 183 179 187 205 216 229 246 224 168 164 151 140 122 108 247 256 202 170 187 192 198 209 203 193 181 163 185 214 232 239 216 209 221 205 193 219 228 228 236 233 225 221 203 189 185 183 190 197 198 195 192 189 186 185 186 187 187 192 200 202 202 200 198 197 194 191 191 190 188 186 182 179 177 175 173 171 169 167 167 167 166 164
160 174 184 189 191 187 191 209 238 251 241 225 192 167 145 129 123 156 220 234 183 176 187 183 193 207 200 183 173 190 212 215 228 262 185 182 205 204 190 208 213 217 227 220 211 205 192 189 193 195 200 203 199 193 190 187 185 186 187 186 189 198 204 203 201 199 196 194 192 190 189 188 187 185 182 180 178 175 173 172 171 170 170 168 167 165
163 171 187 185 182 182 190 203 242 270 231 181 164 178 157 140 164 204 211 189 151 175 183 187 200 205 192 181 189 209 219 201 95 64 168 180 200 202 178 170 161 173 199 199 199 198 191 191 197 200 203 203 198 194 191 187 186 188 187 189 195 201 202 199 197 196 193 191 190 188 187 186 186 184 182 180 178 175 173 172 173 173 172 170 168 165
173 171 187 190 170 133 162 189 220 260 219 141 127 170 217 182 189 191 123 55 166 165 164 192 208 196 177 186 204 217 221 199 158 192 206 212 220 210 189 183 173 178 182 181 192 197 191 190 196 198 199 198 196 195 192 188 188 189 189 194 198 198 196 195 195 192 189 188 188 187 187 186 185 184 183 181 179 177 174 173 174 174 173 171 169 165
178 177 188 198 182 161 184 201 210 225 172 143 142 176 213 204 189 162 133 138 214 181 166 189 207 198 184 189 205 211 211 216 222 219 222 237 237 226 218 214 205 199 192 190 196 195 190 190 192 191 194 196 195 195 193 191 190 189 192 196 196 192 191 192 190 188 187 187 187 186 186 186 185 186 184 182 180 178 175 175 174 174 173 172 170 168
198 192 175 181 194 190 197 207 205 162 163 166 166 178 187 189 200 165 145 148 189 196 176 178 198 203 195 191 195 198 203 215 219 211 213 225 226 217 213 215 214 208 200 199 197 192 190 191 186 183 187 193 196 196 195 194 193 191 193 195 193 191 189 187 187 187 187 187 187 186 186 185 185 186 185 183 182 181 178 176 175 173 173 174 173 172
224 183 142 152 206 256 260 206 165 149 207 198 200 171 180 189 196 151 147 165 191 185 176 179 189 192 190 185 180 189 208 212 209 210 215 220 222 219 212 209 210 203 194 192 190 187 186 185 183 183 184 190 195 197 197 197 197 196 196 194 192 192 191 188 187 187 187 187 187 186 185 185 184 185 185 184 185 185 183 181 178 177 176 177 177 177
288 175 160 161 168 208 233 207 163 162 202 202 216 283 235 205 200 161 165 196 206 184 187 198 187 176 176 176 180 196 207 197 193 205 213 213 217 218 211 206 204 197 194 194 190 185 182 180 181 185 187 191 195 197 197 198 200 201 200 196 193 193 192 190 189 187 187 187 186 186 186 186 184 184 185 185 186 186 185 184 183 181 180 180 180 179
212 171 172 180 169 188 221 213 165 187 216 209 209 216 197 192 202 201 186 175 98 109 167 158 129 150 170 183 189 191 186 179 188 197 201 207 214 211 207 208 203 196 197 198 192 186 185 187 188 190 192 195 195 196 196 197 199 202 202 198 196 194 191 190 191 189 188 187 186 186 187 187 186 185 185 186 187 188 187 186 186 186 186 187 187 186
136 154 177 185 181 209 261 227 148 195 246 243 231 228 222 200 199 203 185 121 61 64 160 156 149 164 183 196 189 172 170 190 199 192 187 199 207 204 205 204 194 191 194 194 192 192 192 195 196 195 196 198 196 194 195 196 199 202 202 200 198 195 192 191 191 190 188 187 187 187 188 188 189 188 186 187 188 190 191 191 191 191 192 194 194 195
139 164 176 159 179 218 232 199 162 161 210 230 225 225 225 212 189 184 176 178 217 214 186 179 185 185 204 209 184 176 191 203 196 183 187 201 206 202 197 185 180 189 193 191 194 198 200 203 204 199 197 198 196 194 194 196 199 201 203 202 200 198 195 191 188 187 188 188 188 188 189 189 189 189 189 188 187 189 191 193 195 196 196 197 199 200
179 179 172 169 201 221 212 170 158 162 189 204 204 208 211 195 172 181 196 207 214 205 179 178 184 187 211 223 196 192 201 196 178 178 185 193 193 186 183 182 182 186 189 190 193 199 204 207 206 200 196 195 196 196 196 198 200 201 203 204 203 201 199 194 189 187 188 190 190 190 190 189 189 190 190 190 189 189 189 190 195 200 202 203 203 204